Current Version              Previous Version:    01  02  03  04  05  06  07  08  09  10  11  12  13  14  15  16  17  18  19  20  21  22  23  24  25  26  27  28  29  30  
   31  32  33  34  35  36  37  38  39  40  41  42  43  44  45  46  47  48  49  50  51  52  53  54  55  56  57  58  59  60  

[Printable]
660
ASUS44 KLUB 171310
RWRTX
WEST TEXAS WEATHER ROUNDUP
NATIONAL WEATHER SERVICE LUBBOCK TX
800 AM CDT WED SEP 17 2014

NOTE: "FAIR" INDICATES FEW OR NO CLOUDS BELOW 12,000 FEET WITH NO
SIGNIFICANT WEATHER AND/OR OBSTRUCTIONS TO VISIBILITY.

TXZ004-006>008-010-012-014-016-OKZ002-171400-
TEXAS PANHANDLE/OKLAHOMA PANHANDLE

CITY           SKY/WX    TMP DP  RH WIND       PRES   REMARKS
AMARILLO       MOCLDY    60  59  96 S7        30.08R FOG
BORGER         MOCLDY    67  61  81 SW6       30.03S
CANADIAN       MOCLDY    65  64  94 SW5       29.99S
DALHART        PTCLDY    59  57  93 SW6       30.08R
GUYMON         MOCLDY    64  61  90 SW10      29.98R
PAMPA          MOCLDY    62  59  90 SW6       30.06R
$$

TXZ026-029-035-045-048-171400-
SOUTHERN PANHANDLE/SOUTH PLAINS/ROLLING PLAINS

CITY           SKY/WX    TMP DP  RH WIND       PRES   REMARKS
CHILDRESS      CLOUDY    70  66  87 W6        30.02S
SEMINOLE       CLOUDY    66  65  97 CALM      30.09S
LUBBOCK        CLOUDY    66  64  93 E5        30.08S
PLAINVIEW      CLOUDY    64  63  96 CALM      30.07S FOG
SNYDER         MOCLDY    70  69  95 CALM      30.05S
$$

TXZ052-054-060>062-072-078-127-140-154-169-171400-
PERMIAN BASIN/CONCHO VALLEY/BIG COUNTRY/EDWARDS PLATEAU

CITY           SKY/WX    TMP DP  RH WIND       PRES   REMARKS
ABILENE        LGT RAIN  74  69  85 CALM      30.02R
BIG SPRING     CLOUDY    74  70  87 E5        30.07R
BRADY            N/A     73  72  94 CALM      30.01R
BROWNWOOD      CLOUDY    73  70  88 CALM      30.01S
JUNCTION       PTCLDY    71  67  87 CALM      30.01R
MIDLAND        MOCLDY    69  66  90 CALM      30.05R
ODESSA         MOCLDY    68  66  93 E3        30.07R
SAN ANGELO     PTCLDY    71  67  87 CALM      30.02R
SONORA         CLOUDY    70  68  94 CALM      30.07S
SWEETWATER     MOCLDY    71  71 100 CALM      30.07S
WINK           CLOUDY    70  66  87 E3        30.03S
$$

TXZ055-058-074-075-080-082-171400-
FAR WEST/SOUTHWEST MOUNTAINS/TRANS PECOS

CITY           SKY/WX    TMP DP  RH WIND       PRES   REMARKS
ALPINE         MOCLDY    64  60  87 SW5       30.18R
DRYDEN           N/A     76  71  85 E6        30.01R
EL PASO        LGT RAIN  68  64  87 N8        30.07R
FORT STOCKTON  MOCLDY    67  65  93 S8        30.05R
GUADALUPE PASS PTCLDY    62  59  90 NE15      30.18S
MARFA          CLOUDY    59  57  94 CALM      30.17R
PECOS          MOCLDY    67  64  90 E5        30.03R
PRESIDIO       FAIR      72  63  72 N7        30.02S
$$

TXZ014-016-019-021>030-083-171400
TEXAS TECH WEST TEXAS MESONET/TEXAS PANHANDLE/NORTHERN SOUTH PLAINS

CITY           SKY/WX    TMP DP  RH WIND       PRES   REMARKS
ABERNATHY 5ENE   N/A     65  63  94 SE3       30.10S
AMARILLO 9NNE    N/A     64  61  90 S9        30.06S
AMARILLO 7SSE    N/A     62  61  97 SW8       30.09S
AMHERST 1NE      N/A     64  63  97 CALM      30.10S
BOOTLEG 11WNW    N/A     62  60  93 SW9       30.14R
CANADIAN 6E      N/A     66  63  88 S3        29.99S
CAPROCK CYN SP   N/A     70  63  79 SW3       30.05S
CLARENDON 2WSW   N/A     65  61  87 SW7       30.05R
CLAUDE 12SW      N/A     65  63  94 SW5       30.08R
DIMMITT 2NE      N/A     62  61  97 SW6       30.10S
FLOYDADA 2NNE    N/A     66  63  90 SW2       30.08R
FRIONA 2NE       N/A     61  60  94 S3        30.12S
GOODLETT 3W      N/A     69  66  90 SW3       29.99S
HART 3N          N/A     62  61  97 SW1       30.10S
HEREFORD 2NW     N/A     62  60  93 SW7       30.10S
MCLEAN 1E        N/A     65  62  90 SW8       30.03S
MEMPHIS 1NE      N/A     65  63  93 W1        30.02R
MULESHOE 2SSW    N/A     64  62  95 W2        30.10S
OLTON 6S         N/A     64  62  94 S3        30.09S
PALO DURO SP     N/A     63  62  96 SW1       30.10R
PAMPA 2E         N/A     62  60  93 SW8       30.05R
PLAINVIEW 1S     N/A     64  63  97 CALM      30.08S
SILVERTON 7ESE   N/A     64  62  93 SW6       30.07S
TULIA 2ENE       N/A     64  63  96 SW7       30.09R
TURKEY 2WSW      N/A     70  64  81 W8        30.03S
UMBARGER 3NNE    N/A     61  60  97 SW8       30.10R
$$

TXZ033>036-039>041-045>048-171400
TEXAS TECH WEST TEXAS MESONET/SOUTH PLAINS

CITY           SKY/WX    TMP DP  RH WIND       PRES   REMARKS
AIKEN 3WSW       N/A     64  64  98 CALM      30.09S
ANDREWS 2NE      N/A     67  65  90 E1        30.08R
ANTON 6SSW       N/A     65  64  95 N1        30.09R
BROWNFIELD 2S    N/A     66  64  94 CALM      30.08S
DENVR CTY 7WNW   N/A     64  62  93 E1        30.09S
GAIL 2ESE        N/A     69  67  94 NE1       30.04R
LAMESA 2SE       N/A     68  65  92 SE3       30.06S
LEVELLAND 4S     N/A     65  63  93 CALM      30.09S
LUBBOCK 3WNW   LGT RAIN  67  65  93 NE2       30.09R
MORTON 1ENE      N/A     65  64  97 S1        30.10R
ODONNELL 1N      N/A     66  64  93 E2        30.07S
PLAINS 3N        N/A     65  63  93 SE3       30.10S
RALLS 1SE        N/A     67  65  93 CALM      30.09S
REESE CENTER     N/A     65  64  96 NE2       30.09R
SEAGRAVES 1SW    N/A     65  64  96 CALM      30.08S
SEMINOLE 2NNE    N/A     66  64  94 CALM      30.08R
SLATON 2NE       N/A     66  64  94 NE1       30.08S
SNYDER 3E        N/A     69  68  94 SE2       30.04R
SUNDOWN 8SW      N/A     65  63  93 S6        30.09S
TAHOKA 3NNE      N/A     67  65  94 NE2       30.07R
WOLFFORTH 6SSW   N/A     66  65  97 NE2       30.08S
$$

TXZ031-032-036>038-042>044-171400-
TEXAS TECH WEST TEXAS MESONET/ROLLING PLAINS

CITY           SKY/WX    TMP DP  RH WIND       PRES   REMARKS
ASPERMONT 3NE    N/A     70  69  95 E1        30.01S
FLUVANNA 3WNW    N/A     69  66  90 E3        30.05S
GRAHAM 5SSW      N/A     68  65  90 E1        30.06R
GUTHRIE 10WSW    N/A     70  66  89 CALM      30.01F
HASKELL 1NW      N/A     72  69  90 S2        30.00S
JAYTON 1SSE      N/A     70  68  93 NE1       30.03R
KNOX CITY 3NW    N/A     72  67  87 CALM      30.00S
LK A HENRY 1NW   N/A     69  69  98 N1        30.03S
ODELL 4ENE       N/A     71  69  94 SW2       30.00R
PADUCAH 10SW     N/A     70  66  85 S6        30.01S
POST 1NE         N/A     68  70 100 NW3       30.05S
RRING SPRGS 3N   N/A     67  65  96 W5        30.05R
SEYMOUR 3NW      N/A     73  69  86 CALM      29.98S
SPUR 1W          N/A     69  66  92 NW1       30.03S
WEINERT 2NNE     N/A     72  69  93 CALM      30.00S
WHITE RVR 6NE    N/A     68  65  92 N3        30.05S
$$

TXZ052-054-060>062-072-078-127-140-154-169-171400-
TEXAS TECH WEST TEXAS MESONET/PERMIAN BASIN/
CONCHO VALLEY/BIG COUNTRY/EDWARDS PLATEAU

CITY           SKY/WX    TMP DP  RH WIND       PRES   REMARKS
COYANOSA 2N      N/A     69  65  88 E5        30.04R
JUNCTION 1SSW    N/A     69  68  99 CALM      30.02R
MERTZON 3NNE     N/A     69  67  94 SW2       30.04R
SAN ANGELO 7NW   N/A     71  67  87 NE3       30.02S
STRLNG CT 4WSW   N/A     70  67  89 NE2       30.05R
ST LAWRNCE 5SW   N/A     67  66  96 SE7       30.05R
SWEETWATR 11SW   N/A     70  68  96 SE2       30.06S
WALL 1E          N/A     70  66  88 CALM      30.03R
$$

TXZ055-058-074-075-080-082-171400-
TEXAS TECH WEST TEXAS MESONET/FAR WEST/SOUTHWEST MOUNTAINS/TRANS PECOS

CITY           SKY/WX    TMP DP  RH WIND       PRES   REMARKS
PRSMN GAP BBNP   N/A     71  65  82 NE7       30.03S
GUADLPE MTN NP   N/A     61  56  84 N2        30.20S
$$